EUTELSAT 7C

Last updated on Fri Jul 11 2025 00:02:45 GMT+0000 (Coordinated Universal Time)

1 44334U 19034B 25190.35461516 .00000063 00000+0 00000+0 0 9990 2 44334 0.0707 192.1096 0003579 260.7827 329.3065 1.00271362 3393
UTC large
Height (km)
Speed (km/s)
/
Latitude / Longitude
Inclination (degrees)
Orbital Period (minutes)
Azimuth
Elevation
Range (km)
Doppler Factor

Next 0 passes for location: London (51.5072 / 0.1276)

Sorry there are no passes over London.